Weather Roundup
Issued by NWS

Home | Current Version | Previous Version | Text Only | Print | Product List | Glossary On
Versions: 1 2 3 4 5 6 7 8 9 10 11 12 13 14 15 16 17 18 19 20 21 22 23 24 25 26 27 28 29 30 31 32 33 34 35 36 37 38 39 40 41 42 43 44 45 46 47 48 49 50
000
NZUS93 KARX 310210
HRRWXR

CURRENT HOURLY OBSERVATIONS ACROSS
MUCH OF THE UPPER MISSISSIPPI VALLEY
NATIONAL WEATHER SERVICE LA CROSSE WI
900 PM CDT MON MAY 30 2016


...SOUTHEAST MINNESOTA...


CITY           SKY/WX    TMP DP  RH WIND       PRES   REMARKS
ROCHESTER      CLOUDY    72  56  57 SE10      29.93S
ROCHESTER/MAYO FAIR      75  50  42 E7        29.93R
WINONA         CLOUDY    73  55  53 SE3       29.93S
AUSTIN         DRIZZLE   68  61  77 S10G16    29.94R
ALBERT LEA     CLOUDY    72  55  56 S12       29.91S
DODGE CENTER   CLOUDY    73  54  49 SE10      29.92S
PRESTON        CLOUDY    73  53  50 SE6       29.94S
OWATONNA       PTCLDY    75  55  50 SE9       29.90S
FARIBAULT      MOCLDY    73  55  53 E6        29.89S
$$

...ELSEWHERE IN MINNESOTA...


CITY           SKY/WX    TMP DP  RH WIND       PRES   REMARKS
MINNEAPOLIS    MOCLDY    77  52  41 SE13      29.89R
INTNL FALLS    CLOUDY    66  49  54 E12       29.94R
DULUTH         CLOUDY    68  46  45 SE9       29.95R
RED WING       CLOUDY    73  54  49 E6        29.90S
REDWOOD FALLS  CLEAR     78  57  48 SE8       29.82R
MANKATO        PTCLDY    75  55  50 SE10      29.86S
WORTHINGTON    CLEAR     76  55  48 S8        29.83F
FAIRMONT       PTCLDY    72  57  60 SE24G30   29.86S
$$

...SOUTHWEST WISCONSIN...


CITY           SKY/WX    TMP DP  RH WIND       PRES   REMARKS
LA CROSSE      CLOUDY    74  56  53 E5        29.93S
PRAIRIE DU CHI CLOUDY    72  55  56 E5        29.93F
BOSCOBEL       CLOUDY    69  62  78 CALM      29.96R
LONE ROCK      CLOUDY    71  55  56 CALM      29.97R
PLATTEVILLE    CLOUDY    72  54  53 E6        29.97S
FORT MC COY    CLOUDY    68  57  69 CALM      29.96S
CAMP DOUGLAS   PTCLDY    65  65 100 E3        29.96S
MAUSTON-NEW LI PTCLDY    67  57  70 CALM      29.96S
VIROQUA        FAIR      72  49  45 SE7       29.97S
WIS DELLS      CLEAR     69  51  54 CALM      29.98R
$$

...ELSEWHERE IN WISCONSIN...


CITY           SKY/WX    TMP DP  RH WIND       PRES   REMARKS
MILWAUKEE      PTCLDY    64  56  75 E3        29.99S
MADISON        CLOUDY    67  52  58 CALM      29.97S
GREEN BAY      CLEAR     70  61  73 SW3       29.97S
EAU CLAIRE     MOCLDY    72  54  53 SE6       29.93S
BLACK RVR FLS  FAIR      64  56  75 CALM      29.95S
MEDFORD        CLEAR     63  59  87 CALM      29.98S
WAUSAU         CLEAR     71  51  49 CALM      29.96S
WIS RAPIDS     CLEAR     65  53  65 SE3       29.99R
MARSHFIELD     CLEAR     71  53  52 E3        29.97R
RICE LAKE        N/A     72  54  54 CALM      29.95R
$$

...NORTHEAST IOWA...


CITY           SKY/WX    TMP DP  RH WIND       PRES   REMARKS
WATERLOO       TSTM      69  58  67 S14G38    29.92F
DUBUQUE        PTCLDY    71  55  56 E7        29.96S
DECORAH        CLOUDY    73  54  49 SE6       29.94S
MASON CITY     LGT RAIN  66  62  87 CALM      29.96S
CHARLES CITY   CLOUDY    66  63  88 N10       29.95F
OELWEIN        CLOUDY    66  61  82 NW17G25   29.97R
$$

...ELSEWHERE IN IOWA...


CITY           SKY/WX    TMP DP  RH WIND       PRES   REMARKS
DES MOINES     CLOUDY    76  54  46 SW15      29.92R
IOWA CITY      PTCLDY    79  63  57 S6        29.94R
FORT DODGE     CLOUDY    70  54  56 SE9G16    29.91R
MARSHALLTOWN   TSTM      69  60  73 W13       29.92R
CEDAR RAPIDS   CLOUDY    72  69  90 S6        29.92S
$$

...NORTHERN ILLINOIS...


CITY           SKY/WX    TMP DP  RH WIND       PRES   REMARKS
CHICAGO-OHARE  MOCLDY    73  55  53 E7        29.97R
CHICAGO-MIDWAY CLOUDY    74  54  49 E9        29.97R
MOLINE         MOCLDY    76  63  64 CALM      29.93S
ROCKFORD       CLOUDY    76  53  44 NE3       29.98S
PEORIA         PTCLDY    75  62  64 CALM      29.96S
$$

NOTE: "FAIR" INDICATES FEW OR NO CLOUDS BELOW 12,000 FEET WITH NO
SIGNIFICANT WEATHER AND/OR OBSTRUCTIONS TO VISIBILITY. WIND
SPEEDS ARE IN MILES-PER-HOUR.




USA.gov is the U.S. government's official web portal to all federal, state and local government web resources and services.